Date String (YYYY-MM-DD hh:mm:ss) UTC,Instrument flags,absolute air pressure of the measurement (hPa),sample flow rate (lpm),inlet stack bypass flow (lpm),air temperature of the measurement (°C),ambient temperature measured by the external sensor (°C),aerosol sample conditioner tube jacket temperature (°C),OPC LED temperature (°C),internal box temperature (°C),relative humidity of the measurement (%),span deviation,mass concentration of particles derived from Lorenz-Mie calculation of OPC scattering (μg/m³),mass concentration of particles derived from Lorenz-Mie calculation of OPC scattering (μg/m³),mass concentration of particles derived from Lorenz-Mie calculation of OPC scattering (μg/m³)
DateTimeUTC,F1_M11,P_M11,Q1_M11,Q2_M11,T1_M11,T2_M11,T3_M11,T4_M11,T5_M11,U1_M11,ZSPAN_M11,X0_M11,X2_M11,X1_M11
2024-01-28 04:00:00,SystemResetWarning,0835.6,5.00,000.00,023.8,022.4,000.0,032.2,025.1,08.9,0000.0,0004.84,0003.40,0003.13
2024-01-28 04:01:00,SystemResetWarning,0835.7,5.00,000.00,023.8,022.4,000.0,032.2,025.1,08.9,0000.0,0004.91,0003.41,0003.14
2024-01-28 04:02:00,SystemResetWarning,0835.6,5.01,000.00,023.8,022.3,000.0,032.2,025.1,08.9,0000.0,0004.95,0003.41,0003.13
2024-01-28 04:03:00,SystemResetWarning,0835.6,5.00,000.00,023.8,022.3,000.0,032.2,025.1,08.8,0000.0,0004.81,0003.38,0003.13
2024-01-28 04:04:00,SystemResetWarning,0835.6,4.99,000.00,023.7,022.3,000.0,032.2,025.0,08.8,0000.0,0004.70,0003.36,0003.12
2024-01-28 04:05:00,SystemResetWarning,0835.6,4.99,000.00,023.7,022.3,000.0,032.1,025.0,08.8,0000.0,0004.53,0003.33,0003.11
2024-01-28 04:06:00,SystemResetWarning,0835.6,4.99,000.00,023.7,022.3,000.0,032.1,025.0,08.8,0000.0,0004.61,0003.31,0003.10
2024-01-28 04:07:00,SystemResetWarning,0835.6,5.00,000.00,023.7,022.3,000.0,032.1,025.0,08.8,0000.0,0004.42,0003.27,0003.07
2024-01-28 04:08:00,SystemResetWarning,0835.6,5.00,000.00,023.7,022.2,000.0,032.1,025.0,08.8,0000.0,0004.89,0003.27,0003.06
2024-01-28 04:09:00,SystemResetWarning,0835.5,5.00,000.00,023.6,022.2,000.0,032.1,025.0,08.8,0000.0,0005.33,0003.29,0003.05
2024-01-28 04:10:00,SystemResetWarning,0835.5,5.00,000.00,023.6,022.2,000.0,032.1,025.0,08.8,0000.0,0005.34,0003.28,0003.03
2024-01-28 04:11:00,SystemResetWarning,0835.6,5.01,000.00,023.6,022.2,000.0,032.1,024.9,08.8,0000.0,0005.40,0003.28,0003.00
2024-01-28 04:12:00,SystemResetWarning,0835.6,5.01,000.00,023.6,022.2,000.0,032.0,024.9,08.9,0000.0,0005.73,0003.28,0002.97
2024-01-28 04:13:00,SystemResetWarning,0835.6,5.00,000.00,023.6,022.2,000.0,032.0,024.9,08.9,0000.0,0005.95,0003.27,0002.97
2024-01-28 04:14:00,SystemResetWarning,0835.6,5.01,000.00,023.6,022.2,000.0,032.0,024.9,08.9,0000.0,0005.94,0003.27,0002.96
2024-01-28 04:15:00,SystemResetWarning,0835.6,5.00,000.00,023.5,022.2,000.0,032.0,024.9,08.9,0000.0,0005.91,0003.26,0002.96
2024-01-28 04:16:00,SystemResetWarning,0835.6,4.98,000.00,023.5,022.2,000.0,032.0,024.9,08.8,0000.0,0005.96,0003.28,0002.97
2024-01-28 04:17:00,SystemResetWarning,0835.6,4.99,000.00,023.5,022.2,000.0,032.0,024.8,08.8,0000.0,0006.05,0003.27,0002.97
2024-01-28 04:18:00,SystemResetWarning,0835.6,5.00,000.00,023.5,022.1,000.0,032.0,024.8,08.8,0000.0,0006.88,0003.27,0002.98
2024-01-28 04:19:00,SystemResetWarning,0835.7,5.00,000.00,023.5,022.1,000.0,031.9,024.8,08.8,0000.0,0007.12,0003.28,0002.98
2024-01-28 04:20:00,SystemResetWarning,0835.6,5.00,000.00,023.5,022.1,000.0,031.9,024.8,08.8,0000.0,0006.37,0003.27,0002.97
2024-01-28 04:21:00,SystemResetWarning,0835.6,5.01,000.00,023.5,022.1,000.0,031.9,024.8,08.8,0000.0,0006.31,0003.26,0002.97
2024-01-28 04:22:00,SystemResetWarning,0835.6,5.00,000.00,023.5,022.0,000.0,031.9,024.8,08.8,0000.0,0006.20,0003.24,0002.97
2024-01-28 04:23:00,SystemResetWarning,0835.6,4.99,000.00,023.4,022.0,000.0,031.9,024.8,08.8,0000.0,0005.91,0003.22,0002.96
2024-01-28 04:24:00,SystemResetWarning,0835.6,5.00,000.00,023.4,022.0,000.0,031.9,024.8,08.8,0000.0,0005.41,0003.19,0002.94
2024-01-28 04:25:00,SystemResetWarning,0835.6,5.00,000.00,023.4,022.0,000.0,031.9,024.8,08.8,0000.0,0005.73,0003.19,0002.93
2024-01-28 04:26:00,SystemResetWarning,0835.6,5.00,000.00,023.4,022.0,000.0,031.8,024.8,08.8,0000.0,0006.20,0003.20,0002.92
2024-01-28 04:27:00,SystemResetWarning,0835.6,5.00,000.00,023.4,022.0,000.0,031.8,024.8,08.8,0000.0,0006.22,0003.19,0002.89
2024-01-28 04:28:00,SystemResetWarning,0835.6,5.00,000.00,023.4,022.0,000.0,031.8,024.8,08.8,0000.0,0005.98,0003.17,0002.87
2024-01-28 04:29:00,SystemResetWarning,0835.7,5.00,000.00,023.4,022.0,000.0,031.8,024.7,08.9,0000.0,0005.16,0003.18,0002.87
2024-01-28 04:30:00,SystemResetWarning,0835.6,5.00,000.00,023.4,022.0,000.0,031.8,024.7,08.9,0000.0,0004.60,0003.17,0002.87
2024-01-28 04:31:00,SystemResetWarning,0835.7,5.00,000.00,023.3,022.0,000.0,031.8,024.7,09.0,0000.0,0004.61,0003.17,0002.86
2024-01-28 04:32:00,SystemResetWarning,0835.6,5.00,000.00,023.3,022.0,000.0,031.8,024.7,09.0,0000.0,0004.73,0003.17,0002.84
2024-01-28 04:33:00,SystemResetWarning,0835.7,5.00,000.00,023.3,021.9,000.0,031.8,024.7,08.9,0000.0,0004.80,0003.17,0002.83
2024-01-28 04:34:00,SystemResetWarning,0835.6,5.00,000.00,023.3,021.9,000.0,031.7,024.7,08.9,0000.0,0005.72,0003.18,0002.82
2024-01-28 04:35:00,SystemResetWarning,0835.6,5.00,000.00,023.3,021.9,000.0,031.7,024.7,08.9,0000.0,0006.40,0003.19,0002.81
2024-01-28 04:36:00,SystemResetWarning,0835.6,5.00,000.00,023.3,021.9,000.0,031.7,024.6,08.9,0000.0,0006.14,0003.18,0002.80
2024-01-28 04:37:00,SystemResetWarning,0835.6,5.00,000.00,023.3,021.9,000.0,031.7,024.6,08.9,0000.0,0005.58,0003.17,0002.81
2024-01-28 04:38:00,SystemResetWarning,0835.6,5.00,000.00,023.3,021.9,000.0,031.7,024.6,09.0,0000.0,0005.50,0003.15,0002.80
2024-01-28 04:39:00,SystemResetWarning,0835.6,5.00,000.00,023.3,021.9,000.0,031.7,024.6,09.0,0000.0,0005.72,0003.17,0002.79
2024-01-28 04:40:00,SystemResetWarning,0835.7,5.00,000.00,023.2,021.9,000.0,031.7,024.6,09.0,0000.0,0005.75,0003.17,0002.76
2024-01-28 04:41:00,SystemResetWarning,0835.6,5.00,000.00,023.2,021.9,000.0,031.7,024.6,09.0,0000.0,0005.78,0003.16,0002.74
2024-01-28 04:42:00,SystemResetWarning,0835.6,5.00,000.00,023.2,021.9,000.0,031.6,024.6,09.1,0000.0,0005.85,0003.15,0002.74
2024-01-28 04:43:00,SystemResetWarning,0835.6,5.00,000.00,023.2,021.9,000.0,031.6,024.6,09.1,0000.0,0006.89,0003.15,0002.73
2024-01-28 04:44:00,SystemResetWarning,0835.6,5.00,000.00,023.2,021.9,000.0,031.6,024.6,09.0,0000.0,0007.06,0003.16,0002.74
2024-01-28 04:45:00,SystemResetWarning,0835.7,4.99,000.00,023.2,021.9,000.0,031.6,024.6,09.1,0000.0,0006.65,0003.15,0002.73
2024-01-28 04:46:00,SystemResetWarning,0835.6,5.00,000.00,023.2,021.9,000.0,031.6,024.6,09.0,0000.0,0006.30,0003.14,0002.71
2024-01-28 04:47:00,SystemResetWarning,0835.6,5.00,000.00,023.2,021.8,000.0,031.6,024.5,08.9,0000.0,0006.57,0003.16,0002.70
2024-01-28 04:48:00,SystemResetWarning,0835.7,5.00,000.00,023.2,021.8,000.0,031.6,024.5,08.9,0000.0,0006.87,0003.15,0002.67
2024-01-28 04:49:00,SystemResetWarning,0835.7,5.00,000.00,023.2,021.8,000.0,031.6,024.5,09.0,0000.0,0007.72,0003.16,0002.66
2024-01-28 04:50:00,SystemResetWarning,0835.6,5.00,000.00,023.2,021.8,000.0,031.6,024.5,09.2,0000.0,0007.63,0003.13,0002.65
2024-01-28 04:51:00,SystemResetWarning,0835.7,5.00,000.00,023.1,021.8,000.0,031.5,024.5,09.3,0000.0,0007.76,0003.11,0002.64
2024-01-28 04:52:00,SystemResetWarning,0835.7,5.00,000.00,023.1,021.7,000.0,031.5,024.5,09.3,0000.0,0008.15,0003.11,0002.63
2024-01-28 04:53:00,SystemResetWarning,0835.7,5.00,000.00,023.1,021.7,000.0,031.5,024.4,09.3,0000.0,0008.15,0003.11,0002.62
2024-01-28 04:54:00,SystemResetWarning,0835.8,5.00,000.00,023.1,021.7,000.0,031.5,024.4,09.3,0000.0,0007.54,0003.10,0002.61
2024-01-28 04:55:00,SystemResetWarning,0835.7,5.00,000.00,023.1,021.7,000.0,031.5,024.4,09.3,0000.0,0007.43,0003.04,0002.58
2024-01-28 04:56:00,SystemResetWarning,0835.7,5.00,000.00,023.1,021.7,000.0,031.5,024.4,09.4,0000.0,0007.00,0003.03,0002.58
2024-01-28 04:57:00,SystemResetWarning,0835.7,5.00,000.00,023.0,021.6,000.0,031.5,024.4,09.3,0000.0,0007.05,0003.06,0002.58
2024-01-28 04:58:00,SystemResetWarning,0835.7,5.00,000.00,023.0,021.6,000.0,031.5,024.4,09.2,0000.0,0007.45,0003.05,0002.57
2024-01-28 04:59:00,SystemResetWarning,0835.7,5.01,000.00,023.0,021.6,000.0,031.4,024.4,09.2,0000.0,0007.47,0003.04,0002.57
